TimeCST,TemperatureF,Dew PointF,Humidity,Sea Level PressureIn,VisibilityMPH,Wind Direction,Wind SpeedMPH,Gust SpeedMPH,PrecipitationIn,Events,Conditions,WindDirDegrees,DateUTC
12:51 AM,55.9,39.0,53,30.16,10.0,SSE,5.8,-,N/A,,Clear,150,2012-11-18 06:51:00
1:51 AM,55.9,39.0,53,30.16,10.0,South,5.8,-,N/A,,Clear,180,2012-11-18 07:51:00
2:51 AM,55.0,37.9,53,30.16,10.0,Calm,Calm,-,N/A,,Clear,0,2012-11-18 08:51:00
3:51 AM,51.1,37.9,61,30.15,10.0,East,3.5,-,N/A,,Clear,100,2012-11-18 09:51:00
4:51 AM,48.0,37.9,68,30.15,10.0,East,3.5,-,N/A,,Clear,80,2012-11-18 10:51:00
5:51 AM,48.0,37.0,66,30.16,10.0,Calm,Calm,-,N/A,,Clear,0,2012-11-18 11:51:00
6:51 AM,45.0,36.0,71,30.17,10.0,East,4.6,-,N/A,,Clear,90,2012-11-18 12:51:00
7:51 AM,48.0,37.9,68,30.18,10.0,East,5.8,-,N/A,,Clear,80,2012-11-18 13:51:00
8:51 AM,53.1,39.9,61,30.21,10.0,Calm,Calm,-,N/A,,Clear,0,2012-11-18 14:51:00
9:51 AM,60.1,46.0,60,30.17,10.0,SSE,15.0,23.0,N/A,,Clear,160,2012-11-18 15:51:00
11:51 AM,64.0,48.9,58,30.18,10.0,South,13.8,21.9,N/A,,Partly Cloudy,190,2012-11-18 17:51:00
1:51 PM,69.1,50.0,51,30.12,10.0,South,12.7,-,N/A,,Partly Cloudy,190,2012-11-18 19:51:00
2:51 PM,69.1,51.1,53,30.11,10.0,South,13.8,-,N/A,,Clear,170,2012-11-18 20:51:00
3:51 PM,68.0,51.1,55,30.12,10.0,South,10.4,-,N/A,,Partly Cloudy,180,2012-11-18 21:51:00
4:51 PM,66.9,51.1,57,30.14,10.0,South,10.4,-,N/A,,Partly Cloudy,180,2012-11-18 22:51:00
5:51 PM,66.0,51.1,59,30.16,10.0,South,10.4,-,N/A,,Scattered Clouds,180,2012-11-18 23:51:00
6:51 PM,64.0,51.1,63,30.17,10.0,South,5.8,-,N/A,,Mostly Cloudy,180,2012-11-19 00:51:00
7:51 PM,64.0,51.1,63,30.17,10.0,South,9.2,-,N/A,,Overcast,180,2012-11-19 01:51:00
8:51 PM,61.0,51.1,70,30.17,10.0,Calm,Calm,-,N/A,,Partly Cloudy,0,2012-11-19 02:51:00
9:51 PM,57.9,50.0,75,30.17,10.0,South,4.6,-,N/A,,Clear,180,2012-11-19 03:51:00
10:51 PM,53.1,48.0,83,30.17,10.0,Calm,Calm,-,N/A,,Clear,0,2012-11-19 04:51:00
11:51 PM,54.0,48.9,83,30.17,10.0,Calm,Calm,-,N/A,,Mostly Cloudy,0,2012-11-19 05:51:00